User: anonymous   Login
Location: Albany
(35.0000°S, 118.0000°E)
Time: 23:58:44
(UTC-04:00)
Language:

Cosmos 1758 Rocket - Orbit

View from above orbital plane
View from above orbital plane
View from above satellite
View from above satellite

Ground track
Ground track

The orbit data is extracted from the following two-line orbital elements,

1 16792U 86046B   15147.57952905  .00000184  00000-0  19761-4 0  9990
2 16792 082.4829 189.5231 0022918 245.9701 227.3001 14.82915408563482
Epoch (UTC): 27 May 2015 13:54:31
Eccentricity: 0.0022918
inclination: 82.4829°
perigee height: 604 km
apogee height: 636 km
right ascension of ascending node: 189.5231°
argument of perigee: 245.9701°
revolutions per day: 14.82915408
mean anomaly at epoch: 227.3001°
orbit number at epoch: 56348

The dashed part of the orbit path shows where the satellite is in the earth's shadow,  

DLR